771  
ASUS43 KLMK 102202  
RWRKY  
KENTUCKY REGIONAL WEATHER ROUNDUP  
NATIONAL WEATHER SERVICE LOUISVILLE KY  
500 PM EST WED FEB 10 2016  
 
NOTE "FAIR" INDICATES FEW OR NO CLOUDS BELOW 12,000 FEET  
WITH NO SIGNIFICANT WEATHER AND/OR S TO VISIBILITY
.  
 
KYZ001>023-026-027-061>063-070>075-102300-  
WESTERN AND SOUTH CENTRAL KENTUCKY  
 
CITY SKY/WX TMP DP RH WIND PRES REMARKS
 
PADUCAH LGT SNOW 24 18 77 W7 30.16S WCI 16  
HENDERSON CLOUDY 27 10 50 W12 30.14S WCI 16  
OWENSBORO MOSUNNY 25 11 55 W9 30.14S WCI 16  
HOPKINSVILLE CLOUDY 27 10 49 W13 30.13S WCI 16  
BOWLING GREEN CLOUDY 26 11 52 W10 30.14S WCI 16  
GLASGOW NOT AVBL  

 
 
KYZ024-025-028>034-038-045-046-053-102300-  
NORTH CENTRAL KENTUCKY  
 
CITY SKY/WX TMP DP RH WIND PRES REMARKS
 
LOUISVILLE/SDF CLOUDY 23 7 50 SW14 30.10R WCI 11  
LOUISVILLE/LOU CLOUDY 22 8 55 W12 30.10R WCI 10  
FORT KNOX PTSUNNY 22 10 58 SW15 30.08R WCI 9  

 
 
KYZ035>037-039>044-047>052-055>060-089>105-102300-  
NORTHEAST KENTUCKY  
 
CITY SKY/WX TMP DP RH WIND PRES REMARKS
 
LEXINGTON PTSUNNY 19 6 57 SW12 30.06R WCI 7  
COVINGTON CLOUDY 17 4 56 W13 30.04R WCI 4  
FRANKFORT MOSUNNY 20 6 55 W8 30.06R WCI 10  

 
 
KYZ054-064>069-076>088-106>120-102300-  
SOUTHEAST KENTUCKY  
 
CITY SKY/WX TMP DP RH WIND PRES REMARKS
 
JACKSON CLOUDY 17 6 62 VRB6 30.02R WCI 9  
LONDON CLOUDY 19 7 59 W10 30.06S WCI 7  
SOMERSET NOT AVBL  
MIDDLESBORO NOT AVBL  
MONTICELLO MOCLDY 23 9 55 W23 30.11R WCI 7  

 
 
 
 
CLICK HERE TO GO TO PREVIOUS BULLETINS.

The Nexlab KY Page Main Text Page